Alliance, NE

6:45 PM MST on February 27, 2017 (GMT -0700)
Alliance Municipal

Weather History for KAIA - October, 2011

Change the Weather History Date:

Thursday, October 6, 2011

  Actual Average Record
Temperature  
Mean Temperature 65 °F 50 °F  
Max Temperature 80 °F 66 °F 91 °F (1993)
Min Temperature 50 °F 33 °F 10 °F (1952)
Degree Days  
Heating Degree Days 0 15  
Month to date heating degree days 7 85  
Since 1 July heating degree days 208 330  
Cooling Degree Days 0 0  
Month to date cooling degree days 3 0  
Year to date cooling degree days 699 563  
Growing Degree Days 16 (Base 50)    
Moisture  
Dew Point 45 °F    
Average Humidity 51    
Maximum Humidity 86    
Minimum Humidity 15    
Precipitation  
Precipitation 0.02 in 0.04 in 0.90 in (1994)
Month to date precipitation 0.02 0.28  
Year to date precipitation 16.78 14.08  
Sea Level Pressure  
Sea Level Pressure 29.44 in    
Wind  
Wind Speed 23 mph (South)    
Max Wind Speed 39 mph    
Max Gust Speed 56 mph    
Visibility 10 miles    
Events Rain , Thunderstorm    
T = Trace of Precipitation, MM = Missing Value Source: NWS Daily Summary

Daily Weather History Graph

Daily Weather History Graph

Search for Another Location

Airport or City:

Trip Planner

Search our weather history database for the weather conditions in past years. The results will help you decide how hot, cold, wet, or windy it might be!

Date:

Astronomy

Oct. 06, 2011 Rise Set
Actual Time 6:53 AM MDT 6:24 PM MDT
Civil Twilight 6:25 AM MDT 6:52 PM MDT
Nautical Twilight 5:53 AM MDT 7:24 PM MDT
Astronomical Twilight 5:20 AM MDT 7:57 PM MDT
Moon 3:43 PM MDT (10/6) 1:39 AM MDT (10/6)
Length of Visible Light 12h 27m
Length of Day
11h 31m
Waxing Gibbous, 76% of the Moon is Illuminated
Oct 6
Waxing Gibbous
Oct 11
Full
Oct 19
Last Quarter
Oct 26
New
Nov 2
First Quarter

Hourly Weather History & Observations

Time (MDT) Temp. Dew Point Humidity Pressure Visibility Wind Dir Wind Speed Gust Speed Precip Events Conditions
12:53 AM 59.0 °F 46.9 °F 64% 29.51 in 10.0 mi SSE 21.9 mph 31.1 mph N/A   Clear
1:41 AM 57.2 °F 51.8 °F 82% 29.62 in 10.0 mi SSE 23.0 mph 28.8 mph N/A   Mostly Cloudy
1:53 AM 57.9 °F 51.1 °F 78% 29.51 in 10.0 mi SSE 24.2 mph 31.1 mph N/A   Mostly Cloudy
3:53 AM 59.0 °F 53.1 °F 81% 29.48 in 10.0 mi SSE 18.4 mph 27.6 mph N/A   Overcast
4:53 AM 59.0 °F 53.1 °F 81% 29.47 in 10.0 mi SE 20.7 mph 25.3 mph N/A   Overcast
5:53 AM 59.0 °F 53.1 °F 81% 29.47 in 10.0 mi SSE 20.7 mph 26.5 mph N/A   Overcast
6:53 AM 57.9 °F 53.1 °F 84% 29.46 in 10.0 mi SSE 25.3 mph 33.4 mph N/A   Mostly Cloudy
7:19 AM 57.2 °F 53.6 °F 88% 29.56 in 10.0 mi SSE 27.6 mph 35.7 mph N/A   Scattered Clouds
7:53 AM 59.0 °F 53.1 °F 81% 29.46 in 10.0 mi SSE 26.5 mph 33.4 mph N/A   Partly Cloudy
8:53 AM 62.1 °F 53.1 °F 72% 29.45 in 10.0 mi SSE 27.6 mph 39.1 mph N/A   Scattered Clouds
9:05 AM 62.6 °F 53.6 °F 72% 29.55 in 10.0 mi SSE 26.5 mph 38.0 mph N/A   Mostly Cloudy
9:53 AM 64.9 °F 52.0 °F 63% 29.43 in 10.0 mi SSE 32.2 mph 41.4 mph N/A   Mostly Cloudy
10:11 AM 66.2 °F 51.8 °F 60% 29.53 in 10.0 mi SSE 29.9 mph 39.1 mph N/A   Scattered Clouds
10:53 AM 69.1 °F 51.1 °F 53% 29.40 in 10.0 mi SSE 31.1 mph 40.3 mph N/A   Clear
11:53 AM 71.1 °F 51.1 °F 49% 29.37 in 10.0 mi SSE 27.6 mph 38.0 mph N/A   Clear
12:53 PM 75.9 °F 48.0 °F 37% 29.33 in 10.0 mi South 31.1 mph 39.1 mph N/A   Partly Cloudy
1:53 PM 73.4 °F 46.4 °F 38% 29.42 in 10.0 mi SSE 26.5 mph 36.8 mph N/A Rain Light Rain
2:35 PM 77.0 °F 37.4 °F 24% 29.39 in 10.0 mi SSE 29.9 mph 42.6 mph 0.00 in Thunderstorm Scattered Clouds
2:53 PM 77.0 °F 37.9 °F 24% 29.26 in 10.0 mi South 35.7 mph 49.5 mph 0.00 in Thunderstorm Partly Cloudy
3:10 PM 77.0 °F 37.4 °F 24% 29.39 in 10.0 mi South 29.9 mph 41.4 mph N/A   Partly Cloudy
3:17 PM 78.8 °F 35.6 °F 21% 29.38 in 10.0 mi South 33.4 mph 44.9 mph N/A Thunderstorm Partly Cloudy
3:32 PM 80.6 °F 35.6 °F 20% 29.38 in 10.0 mi South 34.5 mph 48.3 mph N/A   Partly Cloudy
3:53 PM 75.9 °F 33.1 °F 21% 29.26 in 10.0 mi South 24.2 mph 56.4 mph N/A   Scattered Clouds
4:53 PM 77.0 °F 39.0 °F 25% 29.24 in 10.0 mi South 18.4 mph 35.7 mph 0.01 in   Scattered Clouds
5:53 PM 78.1 °F 27.0 °F 15% 29.26 in 10.0 mi SSW 27.6 mph 43.7 mph N/A   Partly Cloudy
6:53 PM 55.9 °F 37.9 °F 51% 29.44 in 10.0 mi West 26.5 mph 40.3 mph N/A   Clear
7:53 PM 53.1 °F 39.0 °F 59% 29.50 in 10.0 mi West 10.4 mph - N/A   Scattered Clouds
8:53 PM 51.1 °F 41.0 °F 68% 29.55 in 10.0 mi SW 13.8 mph - 0.00 in Rain Light Rain
9:53 PM 51.1 °F 44.1 °F 77% 29.54 in 10.0 mi West 10.4 mph - 0.01 in Rain Light Rain
10:53 PM 53.1 °F 35.1 °F 50% 29.55 in 10.0 mi WSW 10.4 mph 19.6 mph 0.00 in   Overcast
11:53 PM 53.1 °F 28.9 °F 40% 29.56 in 10.0 mi WSW 11.5 mph - N/A   Mostly Cloudy